Location: Camrose
(53.0181°N, 112.8304°W)
Time: 12:50:30
(UTC+00:00)

ISS - Visible Passes

Search period start: 02 December 2021 00:00
Search period end: 12 December 2021 00:00
Orbit: 417 x 423 km, 51.6° (Epoch: 02 December)

Date Brightness Start Highest point End Pass type
(mag) Time Alt. Az. Time Alt. Az. Time Alt. Az.
02 Dec -3.2 01:28:19 10° W 01:31:40 53° SSW 01:32:21 43° SSE visible
03 Dec -3.4 00:41:09 10° W 00:44:31 63° S 00:47:13 15° ESE visible
03 Dec -1.5 02:18:07 10° W 02:20:13 23° SW 02:20:13 23° SW visible
03 Dec -3.4 23:53:56 10° W 23:57:20 69° S 00:00:44 10° ESE visible
04 Dec -2.3 01:30:48 10° W 01:33:55 34° SSW 01:35:10 25° SSE visible
05 Dec -2.6 00:43:33 10° W 00:46:49 43° SSW 00:50:03 10° SE visible
05 Dec -0.9 02:21:14 10° WSW 02:23:01 14° SW 02:23:17 14° SW visible
05 Dec -2.9 23:56:20 10° W 23:59:40 53° SSW 00:02:59 10° ESE visible
06 Dec -1.2 01:33:32 10° W 01:36:01 19° SW 01:38:28 10° SSE visible
07 Dec -1.5 00:46:05 10° W 00:48:57 25° SSW 00:51:48 10° SSE visible
07 Dec -1.9 23:58:44 10° W 00:01:51 33° SSW 00:04:56 10° SE visible
09 Dec -0.6 00:49:10 10° WSW 00:50:54 13° SW 00:52:38 10° S visible
10 Dec -0.7 00:01:24 10° W 00:03:51 19° SW 00:06:18 10° SSE visible
